Home   Weather   Colchester   Past weeks

Flag for United Kingdom Past Weather in Colchester, England, United Kingdom — Yesterday and Last 2 Weeks

Now
41 °F

Fog.


Feels Like: 38 °F
Forecast: 32 / 42 °F
Wind: 5 mph from Northeast

Location: Luton Airport

Current Time: Dec 3, 2016 at 12:24:40 am

Latest Report: Dec 2, 2016 at 11:50 pm


Visibility: 2 mi

Pressure: 30.30 "Hg

Humidity: 100%

Dew Point: 41 °F

Location of ColchesterLocation

Past Weather in Colchester — Graph

°F

Colchester Temperature Yesterday

Maximum temperature yesterday: 45 °F (at 12:50 pm)
Minimum temperature yesterday: 39 °F (at 4:20 am)
Average temperature yesterday: 42 °F

High & Low Weather Summary for the Past Weeks

 TemperatureHumidityPressure
High52 °F (Nov 21, 1:50 pm)100% (Nov 19, 2:20 am)30.57 "Hg (Nov 19, 2:20 am)
Low25 °F (Nov 30, 3:50 am)57% (Nov 28, 12:20 pm)28.74 "Hg (Nov 20, 5:50 am)
Average40 °F91%29.98 "Hg
* Reported Nov 17 11:20 pm — Dec 2 11:20 pm, Colchester, Weather by CustomWeather, © 2016

Note: Actual official high and low records may vary slightly from our data, if they occured in-between our weather recording intervals... More about our weather records

Advertising

Colchester Weather History for the Previous 24 Hours

Scroll right to see more
 ConditionsComfort  
Time TempWeatherWind HumidityBarometerVisibility
11:20 pm
Fri, Dec 2
41 °FFog.5 mph100%30.30 "Hg3 mi
10:50 pm41 °FFog.6 mph100%30.27 "Hg2 mi
10:20 pm41 °FFog.3 mph100%30.27 "Hg2 mi
9:50 pm41 °FFog.6 mph100%30.27 "Hg2 mi
9:20 pm43 °FFog.7 mph93%30.27 "Hg2 mi
8:50 pm41 °FDrizzle. Low clouds.6 mph100%30.27 "Hg3 mi
8:20 pm43 °FLight rain. Low clouds.6 mph93%30.30 "Hg4 mi
7:50 pm43 °FMostly cloudy.3 mph93%30.30 "HgN/A
7:20 pm43 °FLight rain. Mostly cloudy.5 mph93%30.30 "HgN/A
6:50 pm41 °FLight rain. Overcast.6 mph100%30.30 "HgN/A
6:20 pm43 °FLight rain. Overcast.3 mph93%30.27 "HgN/A
5:50 pm43 °FOvercast.5 mph87%30.27 "HgN/A
5:20 pm43 °FOvercast.3 mph87%30.27 "HgN/A
4:50 pm43 °FOvercast.2 mph87%30.27 "HgN/A
4:20 pm43 °FOvercast.3 mph87%30.30 "HgN/A
3:50 pm43 °FOvercast.2 mph87%30.30 "HgN/A
3:20 pm43 °FOvercast.3 mph87%30.30 "HgN/A
2:50 pm43 °FOvercast.5 mph87%30.30 "HgN/A
2:20 pm43 °FOvercast.2 mph87%30.30 "HgN/A
1:50 pm45 °FOvercast.3 mph81%30.30 "HgN/A
1:20 pm45 °FOvercast.2 mph81%30.30 "HgN/A
12:50 pm45 °FOvercast.2 mph81%30.30 "HgN/A
12:20 pm43 °FOvercast.3 mph87%30.30 "HgN/A
11:50 am43 °FOvercast.3 mph87%30.30 "HgN/A
11:20 am43 °FOvercast.5 mph87%30.30 "HgN/A
10:50 am43 °FOvercast.6 mph87%30.33 "HgN/A
10:20 am43 °FOvercast.7 mph87%30.33 "HgN/A
9:50 am43 °FOvercast.5 mph87%30.33 "HgN/A
9:20 am41 °FOvercast.6 mph93%30.33 "HgN/A
8:50 am41 °FOvercast.7 mph93%30.30 "Hg6 mi
8:20 am41 °FOvercast.6 mph93%30.30 "HgN/A
7:50 am41 °FOvercast.7 mph93%30.30 "Hg6 mi
7:20 am41 °FOvercast.7 mph93%30.30 "Hg6 mi
6:50 am39 °FOvercast.7 mph100%30.30 "Hg5 mi
6:20 am39 °FOvercast.6 mph100%30.30 "Hg5 mi
5:50 am39 °FOvercast.3 mph93%30.30 "Hg5 mi
5:20 am39 °FOvercast.7 mph93%30.30 "HgN/A
4:50 am39 °FOvercast.6 mph93%30.30 "HgN/A
4:20 am39 °FOvercast.5 mph93%30.30 "HgN/A
3:50 am41 °FOvercast.7 mph93%30.30 "HgN/A
3:20 am41 °FOvercast.7 mph93%30.30 "HgN/A
2:50 am41 °FOvercast.6 mph93%30.33 "HgN/A
2:20 am41 °FOvercast.7 mph93%30.33 "HgN/A
1:50 am41 °FOvercast.7 mph87%30.33 "HgN/A
1:20 am41 °FOvercast.8 mph87%30.33 "HgN/A
12:50 am41 °FOvercast.7 mph87%30.33 "HgN/A
12:20 am41 °FOvercast.9 mph87%30.33 "HgN/A
Weather by CustomWeather, © 2016

See weather overviewHow to use our weather pages